EW6167 Weather Reports


time (UTC)temp
C
wind
direction
speed
KPH
gust
KPH
rain 1hr
cm
rain 24hr
cm
rain mn
cm
humidity
%
barometer
mb
20260906100522 7 201 4.8 0.0 0.00 0.00 0.00 65 1009.2
20260906100042 7 198 6.4 0.0 0.00 0.00 0.00 64 1009.1
20260906095549 7 200 6.4 0.0 0.00 0.00 0.00 63 1009.1
20260906095104 7 186 8.0 0.0 0.00 0.00 0.00 63 1008.9
20260906094513 7 294 8.0 0.0 0.00 0.00 0.00 63 1009.0
20260906094038 7 294 8.0 0.0 0.00 0.00 0.00 63 1008.9
20260906093554 7 294 8.0 0.0 0.00 0.00 0.00 64 1009.0
20260906093124 7 294 8.0 0.0 0.00 0.00 0.00 63 1009.0
20260906092517 7 294 9.7 0.0 0.00 0.00 0.00 63 1008.9
20260906092031 7 294 8.0 0.0 0.00 0.00 0.00 62 1008.9
20260906091537 7 294 8.0 0.0 0.00 0.00 0.00 62 1008.9
20260906091048 7 294 6.4 0.0 0.00 0.00 0.00 61 1008.9
20260906090559 7 294 6.4 0.0 0.00 0.00 0.00 61 1008.9
20260906090103 7 294 6.4 0.0 0.00 0.00 0.00 61 1009.0
20260906085520 8 294 6.4 0.0 0.00 0.00 0.00 60 1009.1
20260906085035 8 294 4.8 0.0 0.00 0.00 0.00 59 1009.1
20260906084540 8 302 3.2 0.0 0.00 0.00 0.00 57 1009.0
20260906084044 9 302 1.6 0.0 0.00 0.00 0.00 55 1009.2
20260906083547 9 302 0.0 0.0 0.00 0.00 0.00 56 1008.8
20260906083055 10 302 0.0 0.0 0.00 0.00 0.00 55 1008.9
20260906082605 10 302 3.2 0.0 0.00 0.00 0.00 55 1008.9
20260906082104 10 302 4.8 0.0 0.00 0.00 0.00 55 1008.8
20260906081521 10 302 6.4 0.0 0.00 0.00 0.00 55 1008.8
20260906081038 10 302 6.4 0.0 0.00 0.00 0.00 53 1008.9
20260906080547 11 302 6.4 0.0 0.00 0.00 0.00 52 1009.0
20260906080055 11 302 6.4 0.0 0.00 0.00 0.00 52 1009.0
20260906075504 10 302 6.4 0.0 0.00 0.00 0.00 54 1009.2
20260906075021 10 302 8.0 0.0 0.00 0.00 0.00 55 1009.2
20260906074535 10 290 9.7 0.0 0.00 0.00 0.00 56 1009.2
20260906074040 10 269 11.3 0.0 0.00 0.00 0.00 57 1009.3
20260906073541 10 250 12.9 0.0 0.00 0.00 0.00 57 1009.3
20260906073048 10 267 12.9 0.0 0.00 0.00 0.00 58 1009.3
20260906072555 9 351 9.7 0.0 0.00 0.00 0.00 58 1009.4
20260906072057 10 35 8.0 0.0 0.00 0.00 0.00 56 1009.4
20260906071503 10 202 9.7 0.0 0.00 0.00 0.00 55 1008.9
20260906071008 10 200 11.3 0.0 0.00 0.00 0.00 55 1008.9
20260906070518 10 199 14.5 0.0 0.00 0.00 0.00 55 1009.0
20260906070026 10 211 14.5 0.0 0.00 0.00 0.00 54 1009.0
20260906065534 11 216 14.5 0.0 0.00 0.00 0.00 54 1009.0
20260906065039 11 221 11.3 0.0 0.00 0.00 0.00 53 1009.0
20260906064546 10 219 9.7 0.0 0.00 0.00 0.00 54 1008.9
20260906064053 11 203 12.9 0.0 0.00 0.00 0.00 54 1008.8
20260906063549 10 211 12.9 0.0 0.00 0.00 0.00 54 1008.9
20260906063049 10 221 11.3 0.0 0.00 0.00 0.00 54 1009.1
20260906062549 11 234 9.7 0.0 0.00 0.00 0.00 54 1009.2
20260906062053 11 227 9.7 0.0 0.00 0.00 0.00 53 1009.2
20260906061558 11 226 11.3 0.0 0.00 0.00 0.00 53 1009.2
20260906061057 11 205 9.7 0.0 0.00 0.00 0.00 50 1009.3
20260906060506 11 202 4.8 0.0 0.00 0.00 0.00 52 1009.2
20260906060020 10 179 3.2 0.0 0.00 0.00 0.00 52 1009.5
20260906055533 10 188 4.8 0.0 0.00 0.00 0.00 53 1009.3
20260906055042 10 188 6.4 0.0 0.00 0.00 0.00 52 1009.3
20260906054549 10 193 6.4 0.0 0.00 0.00 0.00 52 1009.3
20260906054053 10 192 8.0 0.0 0.00 0.00 0.00 52 1009.3
20260906053506 10 192 8.0 0.0 0.00 0.00 0.00 51 1009.3
20260906053016 11 183 9.7 0.0 0.00 0.00 0.00 51 1009.3
20260906052525 11 169 11.3 0.0 0.00 0.00 0.00 51 1009.4
20260906052029 11 170 9.7 0.0 0.00 0.00 0.00 53 1009.5
20260906051536 11 159 9.7 0.0 0.00 0.00 0.00 53 1009.5
20260906051050 11 181 11.3 0.0 0.00 0.00 0.00 53 1009.5
20260906050556 11 185 11.3 0.0 0.00 0.00 0.00 53 1009.4
20260906050124 11 204 11.3 0.0 0.00 0.00 0.00 52 1009.4
20260906045518 12 196 9.7 0.0 0.00 0.00 0.00 51 1009.6
20260906045032 12 185 8.0 0.0 0.00 0.00 0.00 51 1009.7
20260906044538 12 189 6.4 0.0 0.00 0.00 0.00 49 1009.7
20260906044053 12 178 6.4 0.0 0.00 0.00 0.00 48 1009.7
20260906043557 12 173 8.0 0.0 0.00 0.00 0.00 49 1009.8
20260906043009 12 169 8.0 0.0 0.00 0.00 0.00 48 1009.8
20260906042528 13 189 8.0 0.0 0.00 0.00 0.00 45 1009.8
20260906042039 14 164 9.7 0.0 0.00 0.00 0.00 43 1009.7
20260906041543 15 216 12.9 0.0 0.00 0.00 0.00 42 1009.7
20260906041055 15 211 12.9 0.0 0.00 0.00 0.00 42 1009.6
20260906040559 15 202 14.5 0.0 0.00 0.00 0.00 42 1009.7
20260906040003 15 213 14.5 0.0 0.00 0.00 0.00 42 1009.7
20260906035606 15 212 12.9 0.0 0.00 0.00 0.00 42 1009.7
20260906035102 15 223 11.3 0.0 0.00 0.00 0.00 42 1009.7
20260906034556 15 215 11.3 0.0 0.00 0.00 0.00 42 1009.7
20260906034007 15 217 11.3 0.0 0.00 0.00 0.00 41 1009.7
20260906033514 15 213 9.7 0.0 0.00 0.00 0.00 40 1009.4
20260906033053 15 218 9.7 0.0 0.00 0.00 0.00 40 1009.3
20260906032533 15 201 9.7 0.0 0.00 0.00 0.00 40 1009.3
20260906032025 15 200 9.7 0.0 0.00 0.00 0.00 40 1009.2
20260906031515 15 208 9.7 0.0 0.00 0.00 0.00 40 1009.2
20260906031013 15 210 9.7 0.0 0.00 0.00 0.00 41 1009.1
20260906030513 14 213 9.7 0.0 0.00 0.00 0.00 40 1009.0
20260906030013 15 212 8.0 0.0 0.00 0.00 0.00 39 1008.9
20260906025508 15 208 8.0 0.0 0.00 0.00 0.00 39 1008.8
20260906025002 15 198 6.4 0.0 0.00 0.00 0.00 38 1008.7
20260906024505 15 186 6.4 0.0 0.00 0.00 0.00 38 1008.7
20260906024109 16 182 8.0 0.0 0.00 0.00 0.00 38 1008.8
20260906023607 16 176 8.0 0.0 0.00 0.00 0.00 37 1008.6
20260906023102 16 179 9.7 0.0 0.00 0.00 0.00 36 1008.6
20260906022607 16 171 8.0 0.0 0.00 0.00 0.00 36 1008.4
20260906022004 16 184 8.0 0.0 0.00 0.00 0.00 35 1008.2
20260906021514 17 164 8.0 0.0 0.00 0.00 0.00 34 1008.2
20260906021105 17 157 6.4 0.0 0.00 0.00 0.00 33 1008.2
20260906020605 17 160 6.4 0.0 0.00 0.00 0.00 33 1008.2
20260906020108 18 196 6.4 0.0 0.00 0.00 0.00 31 1008.1
20260906015603 19 196 8.0 0.0 0.00 0.00 0.00 30 1007.9
20260906015058 20 193 8.0 0.0 0.00 0.00 0.00 30 1008.0
20260906014609 20 195 8.0 0.0 0.00 0.00 0.00 29 1007.9
20260906014050 21 190 8.0 0.0 0.00 0.00 0.00 28 1007.9
20260906013539 21 181 8.0 0.0 0.00 0.00 0.00 27 1007.7
20260906013048 22 203 8.0 0.0 0.00 0.00 0.00 27 1007.9
20260906012545 22 207 11.3 0.0 0.00 0.00 0.00 26 1007.8
20260906012046 22 205 12.9 0.0 0.00 0.00 0.00 26 1007.7
20260906011558 23 209 12.9 0.0 0.00 0.00 0.00 25 1007.7
20260906011058 23 194 14.5 0.0 0.00 0.00 0.00 25 1007.6
20260906010501 23 180 16.1 0.0 0.00 0.00 0.00 25 1007.6
20260906005509 23 196 14.5 0.0 0.00 0.00 0.00 24 1007.7
20260906005052 23 201 14.5 0.0 0.00 0.00 0.00 24 1007.6
20260906004551 23 200 16.1 0.0 0.00 0.00 0.00 24 1007.5
20260906004043 23 180 19.3 0.0 0.00 0.00 0.00 24 1007.7
20260906003548 23 198 19.3 0.0 0.00 0.00 0.00 24 1007.6
20260906003101 23 192 19.3 0.0 0.00 0.00 0.00 24 1007.6
20260906002555 23 216 19.3 0.0 0.00 0.00 0.00 24 1007.6
20260906002101 23 200 19.3 0.0 0.00 0.00 0.00 23 1007.6
20260906001559 24 196 20.9 0.0 0.00 0.00 0.00 23 1007.5
20260906001012 24 209 24.1 0.0 0.00 0.00 0.00 23 1007.6
20260906000526 24 221 24.1 0.0 0.00 0.00 0.00 22 1007.5
20260906000042 24 211 24.1 0.0 0.00 0.00 0.00 22 1007.5
20260905235549 24 221 22.5 0.0 0.00 0.00 0.00 22 1007.5
20260905235057 24 169 24.1 0.0 0.00 0.00 0.00 22 1007.4
20260905234503 25 197 24.1 0.0 0.00 0.00 0.00 21 1007.5
20260905234010 24 189 24.1 0.0 0.00 0.00 0.00 22 1007.5
20260905233519 24 197 22.5 0.0 0.00 0.00 0.00 21 1007.6
20260905233040 24 196 17.7 0.0 0.00 0.00 0.00 21 1007.5
20260905232549 25 173 22.5 0.0 0.00 0.00 0.00 21 1007.5
20260905232056 25 196 24.1 0.0 0.00 0.00 0.00 20 1007.4
20260905231504 25 217 20.9 0.0 0.00 0.00 0.00 20 1007.4
20260905231017 25 208 22.5 0.0 0.00 0.00 0.00 21 1007.5
20260905230533 25 197 27.4 0.0 0.00 0.00 0.00 20 1007.5
20260905230059 25 207 27.4 0.0 0.00 0.00 0.00 20 1007.6
20260905225550 25 217 29.0 0.0 0.00 0.00 0.00 20 1007.6
20260905225011 25 209 29.0 0.0 0.00 0.00 0.00 19 1007.8
20260905224524 25 226 29.0 0.0 0.00 0.00 0.00 18 1007.6
20260905224040 25 222 30.6 0.0 0.00 0.00 0.00 18 1007.9
20260905223554 25 195 29.0 0.0 0.00 0.00 0.00 20 1008.0
20260905223005 25 180 29.0 0.0 0.00 0.00 0.00 20 1007.9
20260905222517 25 219 29.0 0.0 0.00 0.00 0.00 18 1007.9
20260905222041 25 200 25.7 0.0 0.00 0.00 0.00 18 1007.9
20260905221600 25 241 22.5 0.0 0.00 0.00 0.00 21 1007.9
20260905221011 24 184 27.4 0.0 0.00 0.00 0.00 22 1008.3
20260905220533 25 209 27.4 0.0 0.00 0.00 0.00 22 1008.2
20260905220046 25 210 29.0 0.0 0.00 0.00 0.00 21 1008.1
20260905215603 24 207 33.8 0.0 0.00 0.00 0.00 21 1008.3
20260905215007 25 227 30.6 0.0 0.00 0.00 0.00 21 1008.3
20260905214513 25 197 29.0 0.0 0.00 0.00 0.00 22 1008.5
20260905214033 25 207 24.1 0.0 0.00 0.00 0.00 22 1008.4
20260905213549 25 211 24.1 0.0 0.00 0.00 0.00 22 1008.5
20260905213013 25 173 25.7 0.0 0.00 0.00 0.00 22 1008.5
20260905212523 25 205 27.4 0.0 0.00 0.00 0.00 22 1008.5
20260905212029 25 169 24.1 0.0 0.00 0.00 0.00 22 1008.4
20260905211546 25 169 24.1 0.0 0.00 0.00 0.00 24 1008.5
20260905211054 25 163 25.7 0.0 0.00 0.00 0.00 23 1008.4
20260905210513 25 142 25.7 0.0 0.00 0.00 0.00 23 1008.3
20260905210030 25 224 19.3 0.0 0.00 0.00 0.00 22 1008.3
20260905205541 25 187 19.3 0.0 0.00 0.00 0.00 24 1008.4
20260905205051 23 212 19.3 0.0 0.00 0.00 0.00 26 1008.4
20260905204605 23 167 22.5 0.0 0.00 0.00 0.00 25 1008.5
20260905204019 23 151 24.1 0.0 0.00 0.00 0.00 24 1008.6
20260905203534 23 202 24.1 0.0 0.00 0.00 0.00 25 1008.5
20260905203056 23 217 22.5 0.0 0.00 0.00 0.00 24 1008.4
20260905202559 24 171 20.9 0.0 0.00 0.00 0.00 25 1008.5
20260905202005 23 208 14.5 0.0 0.00 0.00 0.00 33 1008.6
20260905201522 22 240 9.7 0.0 0.00 0.00 0.00 31 1008.6
20260905201041 21 202 9.7 0.0 0.00 0.00 0.00 38 1008.9
20260905200548 21 323 12.9 0.0 0.00 0.00 0.00 39 1008.8
20260905200013 20 309 16.1 0.0 0.00 0.00 0.00 39 1008.8
20260905195518 20 320 14.5 0.0 0.00 0.00 0.00 39 1008.8
20260905195032 21 360 11.3 0.0 0.00 0.00 0.00 40 1008.9
20260905194540 20 17 9.7 0.0 0.00 0.00 0.00 41 1009.0
20260905194051 20 348 9.7 0.0 0.00 0.00 0.00 41 1009.0
20260905193506 20 315 11.3 0.0 0.00 0.00 0.00 42 1009.1
20260905193026 20 350 9.7 0.0 0.00 0.00 0.00 42 1009.0
20260905192539 19 5 12.9 0.0 0.00 0.00 0.00 43 1009.0
20260905192053 19 317 12.9 0.0 0.00 0.00 0.00 43 1009.2
20260905191555 19 5 12.9 0.0 0.00 0.00 0.00 45 1009.3
20260905191034 18 355 11.3 0.0 0.00 0.00 0.00 45 1009.2
20260905190528 18 355 9.7 0.0 0.00 0.00 0.00 45 1009.2
20260905190006 18 319 9.7 0.0 0.00 0.00 0.00 46 1009.4
20260905185501 18 336 11.3 0.0 0.00 0.00 0.00 47 1009.4
20260905185004 18 360 11.3 0.0 0.00 0.00 0.00 47 1009.4
20260905184517 17 349 9.7 0.0 0.00 0.00 0.00 48 1009.5
20260905184003 17 346 9.7 0.0 0.00 0.00 0.00 48 1009.7
20260905183505 17 11 9.7 0.0 0.00 0.00 0.00 48 1009.7
20260905183023 17 328 9.7 0.0 0.00 0.00 0.00 50 1009.9
20260905182532 17 330 9.7 0.0 0.00 0.00 0.00 50 1009.9
20260905182035 17 5 8.0 0.0 0.00 0.00 0.00 51 1010.0
20260905181536 16 12 6.4 0.0 0.00 0.00 0.00 52 1010.0
20260905181057 16 338 6.4 0.0 0.00 0.00 0.00 51 1010.1
20260905180554 16 22 6.4 0.0 0.00 0.00 0.00 52 1010.1
20260905180105 16 330 8.0 0.0 0.00 0.00 0.00 52 1010.3
20260905175518 16 355 6.4 0.0 0.00 0.00 0.00 53 1010.4
20260905175028 16 325 8.0 0.0 0.00 0.00 0.00 54 1010.4
20260905174535 15 325 9.7 0.0 0.00 0.00 0.00 54 1010.5
20260905174043 15 316 6.4 0.0 0.00 0.00 0.00 54 1010.5
20260905173546 15 311 6.4 0.0 0.00 0.00 0.00 55 1010.5
20260905173055 15 13 8.0 0.0 0.00 0.00 0.00 56 1010.6
20260905172505 15 331 8.0 0.0 0.00 0.00 0.00 55 1010.5
20260905172011 15 330 6.4 0.0 0.00 0.00 0.00 57 1010.6
20260905171529 15 324 8.0 0.0 0.00 0.00 0.00 57 1010.6
20260905171036 15 325 6.4 0.0 0.00 0.00 0.00 58 1010.6
20260905170539 14 360 8.0 0.0 0.00 0.00 0.00 58 1010.6
20260905170057 14 319 6.4 0.0 0.00 0.00 0.00 59 1010.6
20260905165502 14 349 6.4 0.0 0.00 0.00 0.00 60 1010.6
20260905165020 13 324 8.0 0.0 0.00 0.00 0.00 60 1010.7
20260905164544 13 355 8.0 0.0 0.00 0.00 0.00 61 1010.7
20260905164049 13 350 9.7 0.0 0.00 0.00 0.00 62 1010.7
20260905163507 13 347 11.3 0.0 0.00 0.00 0.00 62 1010.7
20260905163016 13 329 9.7 0.0 0.00 0.00 0.00 62 1010.6
20260905162524 13 310 9.7 0.0 0.00 0.00 0.00 63 1010.6
20260905162033 13 341 8.0 0.0 0.00 0.00 0.00 63 1010.5
20260905161541 13 340 8.0 0.0 0.00 0.00 0.00 62 1010.5
20260905161101 13 344 8.0 0.0 0.00 0.00 0.00 63 1010.5
20260905160501 13 5 4.8 0.0 0.00 0.00 0.00 62 1010.4
20260905160026 12 340 6.4 0.0 0.00 0.00 0.00 62 1010.4
20260905155533 12 325 6.4 0.0 0.00 0.00 0.00 62 1010.4
20260905155038 12 320 6.4 0.0 0.00 0.00 0.00 63 1010.3
20260905154600 12 355 8.0 0.0 0.00 0.00 0.00 63 1010.3
20260905154054 12 343 6.4 0.0 0.00 0.00 0.00 64 1010.4
20260905153506 12 355 6.4 0.0 0.00 0.00 0.00 65 1010.4
20260905153027 12 346 6.4 0.0 0.00 0.00 0.00 65 1010.4
20260905152537 12 360 8.0 0.0 0.00 0.00 0.00 65 1010.4
20260905152043 12 360 6.4 0.0 0.00 0.00 0.00 64 1010.3
20260905151552 12 333 6.4 0.0 0.00 0.00 0.00 65 1010.5
20260905151008 12 346 6.4 0.0 0.00 0.00 0.00 65 1010.4
20260905150519 12 325 4.8 0.0 0.00 0.00 0.00 65 1010.4
20260905150035 12 43 4.8 0.0 0.00 0.00 0.00 66 1010.4
20260905145542 12 20 4.8 0.0 0.00 0.00 0.00 66 1010.4
20260905145052 11 69 3.2 0.0 0.00 0.00 0.00 67 1010.4
20260905144603 11 80 3.2 0.0 0.00 0.00 0.00 67 1010.5
20260905144005 11 80 3.2 0.0 0.00 0.00 0.00 69 1010.5
20260905143513 11 105 3.2 0.0 0.00 0.00 0.00 70 1010.6
20260905143035 11 105 3.2 0.0 0.00 0.00 0.00 71 1010.5
20260905142542 11 196 1.6 0.0 0.00 0.00 0.00 71 1010.5
20260905142054 10 207 1.6 0.0 0.00 0.00 0.00 74 1010.4
20260905141607 10 207 1.6 0.0 0.00 0.00 0.00 76 1010.3
20260905141009 9 207 1.6 0.0 0.00 0.00 0.00 78 1010.2
20260905140517 8 201 3.2 0.0 0.00 0.00 0.00 79 1010.3
20260905140021 8 201 4.8 0.0 0.00 0.00 0.00 80 1010.2
20260905135532 8 201 4.8 0.0 0.00 0.00 0.00 82 1010.2
20260905135042 7 201 6.4 0.0 0.00 0.00 0.00 83 1010.0
20260905134554 7 201 6.4 0.0 0.00 0.00 0.00 83 1009.9
20260905134014 7 201 6.4 0.0 0.00 0.00 0.00 83 1009.9
20260905133523 6 201 8.0 0.0 0.00 0.00 0.00 82 1009.8
20260905133029 6 201 8.0 0.0 0.00 0.00 0.00 84 1009.7
20260905132541 6 196 8.0 0.0 0.00 0.00 0.00 84 1009.3
20260905132056 6 195 6.4 0.0 0.00 0.00 0.00 84 1009.2
20260905131605 6 196 6.4 0.0 0.00 0.00 0.00 84 1009.1
20260905131022 6 195 3.2 0.0 0.00 0.00 0.00 83 1008.9
20260905130534 6 195 3.2 0.0 0.00 0.00 0.00 81 1008.9
20260905130042 6 195 3.2 0.0 0.00 0.00 0.00 81 1008.7
20260905125553 6 195 4.8 0.0 0.00 0.00 0.00 80 1008.7
20260905125015 7 195 6.4 0.0 0.00 0.00 0.00 80 1008.8
20260905124532 7 196 6.4 0.0 0.00 0.00 0.00 80 1008.7
20260905124040 7 195 6.4 0.0 0.00 0.00 0.00 80 1008.6
20260905123551 7 195 6.4 0.0 0.00 0.00 0.00 79 1008.6
20260905123105 7 195 4.8 0.0 0.00 0.00 0.00 80 1008.6
20260905122522 7 195 4.8 0.0 0.00 0.00 0.00 81 1008.5
20260905122042 7 196 4.8 0.0 0.00 0.00 0.00 82 1008.4
20260905121555 7 195 4.8 0.0 0.00 0.00 0.00 82 1008.3
20260905121003 6 195 4.8 0.0 0.00 0.00 0.00 81 1008.3
20260905120527 6 105 3.2 0.0 0.00 0.00 0.00 81 1008.3
20260905120046 6 105 3.2 0.0 0.00 0.00 0.00 80 1008.3
20260905115603 7 105 3.2 0.0 0.00 0.00 0.00 80 1008.2
20260905115012 7 105 4.8 0.0 0.00 0.00 0.00 80 1008.2
20260905114532 7 105 6.4 0.0 0.00 0.00 0.00 80 1008.2
20260905114041 7 105 6.4 0.0 0.00 0.00 0.00 79 1008.1
20260905113549 7 105 8.0 0.0 0.00 0.00 0.00 79 1008.1
20260905113120 7 105 8.0 0.0 0.00 0.00 0.00 79 1008.1
20260905112506 7 105 6.4 0.0 0.00 0.00 0.00 80 1008.0
20260905112015 7 9 4.8 0.0 0.00 0.00 0.00 79 1008.0
20260905111534 7 342 4.8 0.0 0.00 0.00 0.00 78 1007.9
20260905111046 7 342 6.4 0.0 0.00 0.00 0.00 78 1007.8
20260905110600 7 342 8.0 0.0 0.00 0.00 0.00 79 1007.9
20260905110018 7 342 8.0 0.0 0.00 0.00 0.00 78 1007.8
20260905105535 7 342 6.4 0.0 0.00 0.00 0.00 78 1007.7
20260905105054 7 342 4.8 0.0 0.00 0.00 0.00 76 1007.7
20260905104603 8 342 4.8 0.0 0.00 0.00 0.00 75 1007.6
20260905104017 8 342 6.4 0.0 0.00 0.00 0.00 74 1007.5
20260905103535 8 342 4.8 0.0 0.00 0.00 0.00 71 1007.4
20260905103049 9 342 3.2 0.0 0.00 0.00 0.00 71 1007.5
20260905102557 10 342 1.6 0.0 0.00 0.00 0.00 70 1007.5
20260905102012 10 342 1.6 0.0 0.00 0.00 0.00 71 1007.4
20260905101524 10 342 1.6 0.0 0.00 0.00 0.00 70 1007.4
20260905101039 10 342 3.2 0.0 0.00 0.00 0.00 70 1007.4